Weather History for Monett, MO

Change the Weather History Date:

Thursday, June 19, 2014

  Actual Average (KJLN) Record (KJLN)
Temperature  
Mean Temperature 76 °F 77 °F  
Max Temperature 82 °F 87 °F 101 °F (1953)
Min Temperature 69 °F 66 °F 49 °F (1976)
Degree Days  
Heating Degree Days 0 0  
Month to date heating degree days 2  
Since 1 June heating degree days 2  
Since 1 July heating degree days 4071  
Cooling Degree Days 10 12  
Month to date cooling degree days 176  
Year to date cooling degree days 356  
Since 1 June cooling degree days 176  
Growing Degree Days 26 (Base 50)    
Moisture  
Dew Point 68 °F    
Average Humidity 80    
Maximum Humidity 94    
Minimum Humidity 61    
Precipitation  
Precipitation 0.00 in 0.19 in 1.44 in (1977)
Month to date precipitation 3.83  
Year to date precipitation 21.78  
Sea Level Pressure  
Sea Level Pressure 30.03 in    
Wind  
Wind Speed 10 mph (South)    
Max Wind Speed 21 mph    
Max Gust Speed 26 mph    
Visibility 10 miles    
Events      
T = Trace of Precipitation, MM = Missing Value Source: NWS Daily Summary

Daily Weather History Graph

Daily Weather History Graph

Search for Another Location

Airport:

Trip Planner

Search our weather history database for the weather conditions in past years. The results will help you decide how hot, cold, wet, or windy it might be!

Date:

Astronomy

Jun. 19, 2014 Rise Set
Actual Time 5:56 AM CDT 8:38 PM CDT
Civil Twilight 5:25 AM CDT 9:09 PM CDT
Nautical Twilight 4:47 AM CDT 9:47 PM CDT
Astronomical Twilight 4:04 AM CDT 10:30 PM CDT
Moon 12:51 AM CDT (6/19) 1:17 PM CDT (6/19)
Length of Visible Light 15h 43m
Length of Day
14h 41m
Waning Gibbous, 51% of the Moon is Illuminated
Jun 19
Waning Gibbous
Jun 19
Last Quarter
Jun 27
New
Jul 5
First Quarter
Jul 12
Full

Hourly Weather History & Observations

Time (CDT) Temp. Heat Index Dew Point Humidity Pressure Visibility Wind Dir Wind Speed Gust Speed Precip Events Conditions
12:15 AM 73.4 °F - 68.0 °F 83% 30.00 in 10.0 mi SSE 9.2 mph - N/A   Clear
12:35 AM 73.4 °F - 68.0 °F 83% 30.00 in 10.0 mi SSE 9.2 mph - N/A   Clear
12:55 AM 73.4 °F - 68.0 °F 83% 30.00 in 10.0 mi SSE 8.1 mph - N/A   Clear
1:15 AM 73.4 °F - 68.0 °F 83% 30.00 in 10.0 mi SSE 8.1 mph - N/A   Clear
1:35 AM 71.6 °F - 68.0 °F 88% 30.00 in 10.0 mi SSE 8.1 mph - N/A   Clear
1:55 AM 71.6 °F - 68.0 °F 88% 29.99 in 10.0 mi SSE 8.1 mph - N/A   Clear
2:15 AM 71.6 °F - 68.0 °F 88% 29.99 in 10.0 mi SSE 8.1 mph - N/A   Clear
2:35 AM 71.6 °F - 68.0 °F 88% 29.99 in 10.0 mi SSE 8.1 mph - N/A   Clear
2:55 AM 71.6 °F - 68.0 °F 88% 29.99 in 10.0 mi SSE 8.1 mph - N/A   Clear
3:15 AM 71.6 °F - 68.0 °F 88% 29.99 in 10.0 mi SSE 8.1 mph - N/A   Clear
3:35 AM 71.6 °F - 68.0 °F 88% 29.98 in 10.0 mi SSE 9.2 mph - N/A   Clear
3:55 AM 71.6 °F - 68.0 °F 88% 29.99 in 10.0 mi South 9.2 mph - N/A   Clear
4:15 AM 71.6 °F - 68.0 °F 88% 30.00 in 10.0 mi South 10.4 mph - N/A   Clear
4:35 AM 71.6 °F - 68.0 °F 88% 30.00 in 10.0 mi South 12.7 mph - N/A   Clear
4:55 AM 71.6 °F - 68.0 °F 88% 30.00 in 10.0 mi South 10.4 mph 17.3 mph N/A   Clear
5:15 AM 71.6 °F - 68.0 °F 88% 30.00 in 10.0 mi South 10.4 mph - N/A   Clear
5:55 AM 71.6 °F - 68.0 °F 88% 30.01 in 10.0 mi South 8.1 mph - N/A   Clear
6:15 AM 71.6 °F - 68.0 °F 88% 30.01 in 10.0 mi South 8.1 mph - N/A   Clear
6:35 AM 71.6 °F - 68.0 °F 88% 30.02 in 10.0 mi South 9.2 mph - N/A   Clear
6:55 AM 71.6 °F - 68.0 °F 88% 30.03 in 10.0 mi South 10.4 mph - N/A   Clear
7:15 AM 73.4 °F - 68.0 °F 83% 30.04 in 10.0 mi South 13.8 mph 17.3 mph N/A   Clear
7:35 AM 73.4 °F - 68.0 °F 83% 30.04 in 10.0 mi South 13.8 mph 19.6 mph N/A   Clear
7:55 AM 73.4 °F - 68.0 °F 83% 30.05 in 10.0 mi South 12.7 mph - N/A   Clear
8:15 AM 77.0 °F - 68.0 °F 74% 30.06 in 10.0 mi South 10.4 mph 16.1 mph N/A   Clear
8:55 AM 77.0 °F - 68.0 °F 74% 30.07 in 10.0 mi South 13.8 mph 21.9 mph N/A   Clear
9:35 AM 77.0 °F - 69.8 °F 78% 30.06 in 10.0 mi South 12.7 mph 19.6 mph N/A   Clear
9:55 AM 78.8 °F - 69.8 °F 74% 30.06 in 10.0 mi South 16.1 mph 19.6 mph N/A   Scattered Clouds
10:15 AM 78.8 °F - 71.6 °F 78% 30.06 in 10.0 mi SSW 17.3 mph 21.9 mph N/A   Scattered Clouds
10:35 AM 80.6 °F 83.9 °F 69.8 °F 70% 30.05 in 10.0 mi South 15.0 mph 19.6 mph N/A   Scattered Clouds
10:55 AM 78.8 °F - 68.0 °F 69% 30.05 in 10.0 mi South 16.1 mph - N/A   Clear
11:15 AM 78.8 °F - 68.0 °F 69% 30.05 in 10.0 mi South 18.4 mph 23.0 mph N/A   Clear
11:35 AM 78.8 °F - 68.0 °F 69% 30.05 in 10.0 mi South 18.4 mph - N/A   Clear
11:55 AM 78.8 °F - 66.2 °F 65% 30.04 in 10.0 mi South 16.1 mph 21.9 mph N/A   Clear
12:15 PM 78.8 °F - 64.4 °F 61% 30.05 in 10.0 mi SSW 15.0 mph 21.9 mph N/A   Clear
12:55 PM 82.4 °F 86.3 °F 69.8 °F 66% 30.04 in 10.0 mi South 20.7 mph 26.5 mph N/A   Scattered Clouds
1:15 PM 80.6 °F 83.2 °F 68.0 °F 65% 30.05 in 10.0 mi South 15.0 mph - N/A   Scattered Clouds
1:35 PM 80.6 °F 83.2 °F 68.0 °F 65% 30.03 in 10.0 mi South 16.1 mph 20.7 mph N/A   Scattered Clouds
1:55 PM 80.6 °F 83.9 °F 69.8 °F 70% 30.04 in 10.0 mi South 15.0 mph 19.6 mph N/A   Scattered Clouds
2:15 PM 80.6 °F 83.9 °F 69.8 °F 70% 30.04 in 10.0 mi South 13.8 mph - N/A   Overcast
2:35 PM 80.6 °F 83.9 °F 69.8 °F 70% 30.05 in 10.0 mi South 13.8 mph 21.9 mph N/A   Overcast
2:55 PM 78.8 °F - 69.8 °F 74% 30.05 in 10.0 mi SSW 18.4 mph 23.0 mph N/A   Overcast
3:15 PM 80.6 °F 83.9 °F 69.8 °F 70% 30.05 in 10.0 mi SSW 16.1 mph - N/A   Scattered Clouds
3:35 PM 78.8 °F - 69.8 °F 74% 30.05 in 10.0 mi SSW 11.5 mph - N/A   Mostly Cloudy
3:55 PM 78.8 °F - 69.8 °F 74% 30.05 in 10.0 mi South 15.0 mph - N/A   Overcast
4:15 PM 78.8 °F - 68.0 °F 69% 30.05 in 10.0 mi SSW 17.3 mph 23.0 mph N/A   Overcast
4:35 PM 77.0 °F - 69.8 °F 78% 30.05 in 10.0 mi SSW 12.7 mph - N/A   Mostly Cloudy
4:55 PM 77.0 °F - 69.8 °F 78% 30.04 in 10.0 mi South 10.4 mph - N/A   Light Drizzle
5:15 PM 73.4 °F - 68.0 °F 83% 30.04 in 10.0 mi South 15.0 mph 20.7 mph N/A   Mostly Cloudy
5:35 PM 75.2 °F - 68.0 °F 78% 30.03 in 10.0 mi SSW 8.1 mph - N/A   Scattered Clouds
5:55 PM 77.0 °F - 68.0 °F 74% 30.03 in 10.0 mi SW 15.0 mph 18.4 mph N/A   Clear
6:15 PM 78.8 °F - 66.2 °F 65% 30.03 in 10.0 mi SW 11.5 mph - N/A   Scattered Clouds
6:35 PM 77.0 °F - 66.2 °F 69% 30.03 in 10.0 mi SW 8.1 mph - N/A   Clear
6:55 PM 77.0 °F - 64.4 °F 65% 30.04 in 10.0 mi SW 9.2 mph - N/A   Clear
7:15 PM 77.0 °F - 64.4 °F 65% 30.04 in 10.0 mi SSW 8.1 mph - N/A   Scattered Clouds
7:35 PM 77.0 °F - 68.0 °F 74% 30.04 in 10.0 mi SSW 9.2 mph - N/A   Scattered Clouds
7:55 PM 73.4 °F - 68.0 °F 83% 30.04 in 10.0 mi SSW 8.1 mph - N/A   Clear
8:15 PM 73.4 °F - 68.0 °F 83% 30.04 in 10.0 mi SSW 6.9 mph - N/A   Scattered Clouds
8:35 PM 73.4 °F - 68.0 °F 83% 30.04 in 10.0 mi South 4.6 mph - N/A   Mostly Cloudy
8:55 PM 71.6 °F - 68.0 °F 88% 30.05 in 10.0 mi South 3.5 mph - N/A   Scattered Clouds
9:15 PM 71.6 °F - 68.0 °F 88% 30.05 in 10.0 mi SSE 3.5 mph - N/A   Clear
9:35 PM 69.8 °F - 68.0 °F 94% 30.05 in 10.0 mi SE 3.5 mph - N/A   Clear
9:55 PM 69.8 °F - 68.0 °F 94% 30.06 in 10.0 mi SE 3.5 mph - N/A   Clear
10:15 PM 69.8 °F - 68.0 °F 94% 30.06 in 10.0 mi South 4.6 mph - N/A   Clear
10:35 PM 69.8 °F - 68.0 °F 94% 30.07 in 10.0 mi SSE 4.6 mph - N/A   Clear
10:55 PM 69.8 °F - 68.0 °F 94% 30.07 in 10.0 mi SE 3.5 mph - N/A   Clear
11:35 PM 69.8 °F - 68.0 °F 94% 30.07 in 10.0 mi SE 5.8 mph - N/A   Clear
11:55 PM 69.8 °F - 68.0 °F 94% 30.07 in 10.0 mi SSE 4.6 mph - N/A   Clear